Stations météo

Publicité
Leucate/Semaphore, France (7666): Température de l'air & dewpoint: 18.01.2019 12:00:00 - 24.01.2019 12:00:00 (CET)Leucate/Semaphore, France (7666): Vitesse du vent & gusts: 18.01.2019 12:00:00 - 24.01.2019 12:00:00 (CET)Leucate/Semaphore, France (7666): Direction du vent: 18.01.2019 12:00:00 - 24.01.2019 12:00:00 (CET)Leucate/Semaphore, France (7666): reduced air pressure: 18.01.2019 12:00:00 - 24.01.2019 12:00:00 (CET)Leucate/Semaphore, France (7666): visibility: 18.01.2019 12:00:00 - 24.01.2019 12:00:00 (CET)Leucate/Semaphore, France (7666): Quantités de précipitations: 18.01.2019 12:00:00 - 24.01.2019 12:00:00 (CET)
Date & Time tt [°C] td [°C] ff [km/h] ff [knt] fx [km/h] fx [knt] dd ppp [hPa] vv [km] rr [mm]
24.01.2019 12:00:00 - - - - - - - - - -
24.01.2019 11:00:00 4,4 -4,6 47 26 109 59 NW 1004,9 - 0,0
24.01.2019 10:00:00 3,7 -4,5 50 27 98 53 NW 1004,3 22 0,0
24.01.2019 09:00:00 2,9 -4,6 48 26 101 55 NW 1003,8 - 0,0
24.01.2019 08:00:00 2,5 -4,1 46 25 92 50 NW 1002,7 - 0,0
24.01.2019 07:00:00 2,8 -4,2 44 24 87 47 NW 1001,3 25 0,0
24.01.2019 06:00:00 3,0 -4,0 46 25 86 46 NW 1000,0 - 0,0
24.01.2019 05:00:00 2,8 -3,8 36 19 72 39 NW 1000,4 - 0,0
24.01.2019 04:00:00 3,2 -3,8 40 22 82 44 NW 1000,5 18 0,0
24.01.2019 03:00:00 3,5 -3,3 33 18 76 41 NW 1000,6 - 0,0
24.01.2019 02:00:00 4,0 -2,6 35 19 70 38 NW 1000,2 - 0,0
24.01.2019 01:00:00 3,9 -2,7 30 16 56 30 NW 1000,0 - 0,0
24.01.2019 00:00:00 3,8 -2,6 26 14 65 35 NW 999,9 - 0,0
23.01.2019 23:00:00 4,0 -2,2 33 18 62 33 NW 999,3 - 0,0
23.01.2019 22:00:00 4,1 -1,9 33 18 67 36 NW 999,2 - 0,0
23.01.2019 21:00:00 4,0 -2,2 31 17 72 39 NW 999,0 - 0,0
23.01.2019 20:00:00 3,9 -1,3 33 18 81 44 NW 998,3 - 0,0
23.01.2019 19:00:00 4,2 -0,8 37 20 72 39 NW 997,7 20 0,0
23.01.2019 18:00:00 4,7 -1,1 23 12 58 32 NW 997,7 - 0,0
23.01.2019 17:00:00 5,4 -0,4 29 15 63 34 NW 996,7 - 0,0
23.01.2019 16:00:00 5,5 2,0 34 19 86 47 NW 995,6 20 0,0
23.01.2019 15:00:00 6,3 4,0 34 18 70 38 NW 994,8 - 2,0
23.01.2019 14:00:00 7,5 4,1 22 12 61 33 NW 995,2 - 0,4
23.01.2019 13:00:00 7,8 3,1 31 17 61 33 WNW 995,9 20 0,0
23.01.2019 12:00:00 6,8 2,9 19 11 35 19 W 997,2 - 0,0
23.01.2019 11:00:00 5,7 2,9 13 7 31 17 W 997,8 - 0,4
23.01.2019 10:00:00 6,3 2,6 18 10 36 19 WNW 997,9 - 0,2
23.01.2019 09:00:00 6,8 2,1 7 4 37 20 W 997,6 - 0,0
23.01.2019 08:00:00 6,8 2,3 11 6 26 14 WSW 997,3 - 0,0
23.01.2019 07:00:00 7,1 2,8 16 9 31 17 W 998,3 20 0,0
23.01.2019 06:00:00 6,7 1,8 10 6 22 12 WSW 999,1 - 0,0
23.01.2019 05:00:00 7,2 1,1 13 7 36 19 SW 999,9 - 0,0
23.01.2019 04:00:00 6,6 0,7 16 8 33 18 NW 1001,2 - 0,0
23.01.2019 03:00:00 5,7 0,6 13 7 22 12 NNW 1002,4 - 0,0
23.01.2019 02:00:00 6,3 0,2 14 8 33 18 NW 1003,1 - 0,0
23.01.2019 01:00:00 6,5 0,4 17 9 38 21 WNW 1003,7 - 0,0
23.01.2019 00:00:00 6,6 0,7 18 10 54 29 NW 1004,8 - 0,0
22.01.2019 23:00:00 6,6 0,3 24 13 49 26 WNW 1005,1 - 0,0
22.01.2019 22:00:00 6,5 1,0 18 10 54 29 NW 1005,6 - 0,0
22.01.2019 21:00:00 6,9 0,8 29 16 67 36 WNW 1006,4 - 0,0
22.01.2019 20:00:00 7,0 1,5 32 17 61 33 NW 1006,5 - 0,0
22.01.2019 19:00:00 6,7 1,6 19 10 31 17 WNW 1006,7 15 0,0
22.01.2019 18:00:00 7,2 -0,3 13 7 38 20 W 1007,0 15 0,0
22.01.2019 17:00:00 8,5 -1,9 14 8 31 17 WNW 1007,1 - 0,0
22.01.2019 16:00:00 8,3 -1,0 14 8 35 19 NW 1007,2 30 0,0
22.01.2019 15:00:00 9,4 -1,4 21 11 40 22 NW 1007,3 - 0,0
22.01.2019 14:00:00 8,2 -1,1 21 11 37 20 NNW 1008,2 - 0,0
22.01.2019 13:00:00 8,9 -1,5 14 8 46 25 NW 1009,5 - 0,0
22.01.2019 12:00:00 9,2 -1,8 24 13 64 35 NW 1010,9 - 0,0
22.01.2019 11:00:00 6,9 -2,3 34 18 65 35 NW 1011,9 - 0,0
22.01.2019 10:00:00 5,0 -2,6 38 20 72 39 NW 1012,9 20 0,0
22.01.2019 09:00:00 3,2 -2,5 32 18 71 38 NW 1013,4 - 0,0
22.01.2019 08:00:00 2,8 -2,7 32 17 76 41 NW 1013,4 - 0,0
22.01.2019 07:00:00 3,0 -2,7 35 19 70 38 NW 1013,8 - 0,0
22.01.2019 06:00:00 3,1 -2,8 33 18 69 37 NW 1014,4 - 0,0
22.01.2019 05:00:00 3,8 -3,3 43 23 79 43 NW 1014,5 - 0,0
22.01.2019 04:00:00 3,8 -2,4 34 18 71 38 NW 1015,6 - 0,0
22.01.2019 03:00:00 3,9 -2,1 33 18 68 37 NW 1016,9 - 0,0
22.01.2019 02:00:00 4,1 -1,1 26 14 59 32 NW 1018,0 - 0,0
22.01.2019 01:00:00 4,5 -0,5 26 14 54 29 NW 1018,5 - 0,0
22.01.2019 00:00:00 5,2 -0,4 28 15 51 28 NW 1018,7 - 0,0
21.01.2019 23:00:00 5,4 -1,3 22 12 53 29 NW 1018,8 - 0,0
21.01.2019 22:00:00 5,5 -0,8 24 13 48 26 NW 1019,1 - 0,0
21.01.2019 21:00:00 6,1 -0,9 27 15 52 28 NW 1018,7 - 0,0
21.01.2019 20:00:00 6,6 -0,9 19 10 61 33 NW 1018,6 - 0,0
21.01.2019 19:00:00 6,8 -0,9 25 14 60 33 NW 1017,9 25 0,0
21.01.2019 18:00:00 7,2 -0,5 31 17 67 36 NW 1017,6 - 0,0
21.01.2019 17:00:00 8,3 -0,2 29 16 66 36 NW 1017,5 - 0,0
21.01.2019 16:00:00 9,6 0,2 29 16 72 39 NW 1017,5 24 0,0
21.01.2019 15:00:00 9,4 -0,2 39 21 71 38 NW 1016,7 - 0,0
21.01.2019 14:00:00 9,7 0,6 38 21 73 39 NW 1016,9 - 0,0
21.01.2019 13:00:00 9,6 1,0 34 19 55 30 NW 1017,4 24 0,0
21.01.2019 12:00:00 9,6 2,2 22 12 44 24 NW 1018,1 - 0,0
21.01.2019 11:00:00 8,0 1,8 23 12 48 26 NW 1017,9 - 0,0
21.01.2019 10:00:00 7,7 2,2 27 15 59 32 NW 1017,2 25 0,0
21.01.2019 09:00:00 7,3 2,4 28 15 57 31 NW 1016,5 - 0,0
21.01.2019 08:00:00 7,2 1,9 26 14 51 27 NW 1016,1 - 0,0
21.01.2019 07:00:00 6,9 2,8 22 12 45 25 NW 1015,8 - 0,0
21.01.2019 06:00:00 6,5 2,8 19 11 45 25 NW 1015,5 - 0,0
21.01.2019 05:00:00 6,8 2,3 23 12 41 22 NW 1015,3 - 0,0
21.01.2019 04:00:00 6,9 2,8 19 10 44 24 NW 1015,1 20 0,0
21.01.2019 03:00:00 7,1 3,5 22 12 44 24 NW 1015,2 - 0,0
21.01.2019 02:00:00 7,2 3,2 24 13 42 23 NW 1014,9 - 0,0
21.01.2019 01:00:00 7,2 3,1 18 10 46 25 NW 1015,1 - 0,0
21.01.2019 00:00:00 7,4 3,6 23 12 42 23 WNW 1015,2 - 0,0
20.01.2019 23:00:00 6,7 3,7 20 11 41 22 NW 1015,0 - 0,0
20.01.2019 22:00:00 6,6 3,6 10 6 21 11 NNW 1014,8 - 0,0
20.01.2019 21:00:00 5,8 2,6 13 7 17 9 NW 1014,7 - 0,0
20.01.2019 20:00:00 5,9 3,1 12 6 17 9 NW 1014,5 - 0,0
20.01.2019 19:00:00 7,1 3,9 10 5 26 14 NNW 1014,1 16 0,0
20.01.2019 18:00:00 8,3 4,5 14 7 39 21 N 1013,6 - 0,0
20.01.2019 17:00:00 8,8 4,2 18 10 36 19 N 1013,2 - 0,0
20.01.2019 16:00:00 8,8 4,4 21 12 39 21 N 1012,8 - 0,0
20.01.2019 15:00:00 9,4 4,8 18 10 41 22 N 1012,3 - 0,0
20.01.2019 14:00:00 8,7 4,3 19 10 34 19 N 1012,2 - 0,0
20.01.2019 13:00:00 7,6 3,8 18 10 34 18 NNW 1012,5 - 0,0
20.01.2019 12:00:00 7,7 4,1 25 14 44 24 NNW 1012,7 - 0,0
20.01.2019 11:00:00 7,1 3,7 21 11 36 19 NNW 1012,1 - 0,0
20.01.2019 10:00:00 6,6 3,6 14 8 30 16 NNW 1011,5 - 0,0
20.01.2019 09:00:00 6,0 3,0 18 10 33 18 NW 1010,7 - 0,0
20.01.2019 08:00:00 6,1 2,9 20 11 34 18 NNW 1010,1 - 0,0
20.01.2019 07:00:00 5,8 2,3 19 11 34 18 NNW 1009,4 16 0,0
20.01.2019 06:00:00 5,7 1,6 21 11 35 19 NW 1009,0 - 0,0
20.01.2019 05:00:00 5,6 2,6 17 9 31 17 NW 1008,7 - 0,0
20.01.2019 04:00:00 5,8 3,0 13 7 20 11 NW 1008,9 - 0,0
20.01.2019 03:00:00 8,9 3,9 13 7 24 13 S 1009,1 - 0,0
20.01.2019 02:00:00 9,0 4,4 8 4 19 11 S 1009,1 - 0,0
20.01.2019 01:00:00 9,0 4,6 19 11 41 22 S 1009,5 - 0,0
20.01.2019 00:00:00 9,6 4,2 19 10 36 19 SSE 1009,8 - 0,0
19.01.2019 23:00:00 9,3 4,5 18 10 36 19 S 1010,1 - 0,0
19.01.2019 22:00:00 10,4 5,4 25 13 36 19 SSE 1010,1 - 0,0
19.01.2019 21:00:00 10,6 4,9 28 15 37 20 SSE 1010,5 - 0,0
19.01.2019 20:00:00 10,9 5,0 27 15 33 18 SE 1010,9 - 0,0
19.01.2019 19:00:00 10,2 5,8 23 13 29 15 SE 1011,3 20 0,0
19.01.2019 18:00:00 9,6 5,0 19 10 24 13 SSE 1011,6 - 0,0
19.01.2019 17:00:00 9,4 4,6 17 9 24 13 SSE 1012,0 - 0,0
19.01.2019 16:00:00 9,3 4,1 14 8 19 10 SSE 1012,3 - 0,0
19.01.2019 15:00:00 9,3 4,3 11 6 19 10 SE 1012,8 - 0,0
19.01.2019 14:00:00 9,8 4,0 11 6 18 10 SE 1013,4 - 0,0
19.01.2019 13:00:00 9,6 3,3 9 5 15 8 SSE 1014,4 - 0,0
19.01.2019 12:00:00 9,1 3,9 9 5 14 8 S 1015,2 - 0,0
19.01.2019 11:00:00 8,5 3,9 5 3 10 6 SSE 1015,5 - 0,0
19.01.2019 10:00:00 7,3 2,6 9 5 14 8 W 1015,3 20 0,0
19.01.2019 09:00:00 5,8 1,5 12 7 19 11 WNW 1014,8 - 0,0
19.01.2019 08:00:00 4,5 1,2 16 8 22 12 WNW 1014,8 - 0,0
19.01.2019 07:00:00 4,6 1,4 16 9 20 11 WNW 1014,5 20 0,0
19.01.2019 06:00:00 4,8 1,8 16 9 19 11 W 1014,5 - 0,0
19.01.2019 05:00:00 5,9 2,0 14 8 23 13 WNW 1014,8 - 0,0
19.01.2019 04:00:00 6,9 2,6 14 8 25 13 WNW 1015,0 20 0,0
19.01.2019 03:00:00 7,2 2,7 13 7 24 13 WNW 1015,5 - 0,0
19.01.2019 02:00:00 7,0 2,5 8 4 23 13 W 1015,6 - 0,0
19.01.2019 01:00:00 7,2 2,9 14 7 26 14 WNW 1016,2 - 0,0
19.01.2019 00:00:00 6,6 2,7 10 6 19 11 NW 1016,4 - 0,0
18.01.2019 23:00:00 7,0 2,7 11 6 22 12 NW 1016,2 - 0,0
18.01.2019 22:00:00 6,4 1,9 9 5 17 9 W 1016,2 - 0,0
18.01.2019 21:00:00 6,8 1,5 10 5 16 9 NW 1016,1 - 0,0
18.01.2019 20:00:00 7,1 1,4 4 2 23 12 S 1016,5 - 0,0
18.01.2019 19:00:00 7,8 1,6 14 8 36 20 NW 1015,8 20 0,0
18.01.2019 18:00:00 8,2 1,8 16 8 31 17 NW 1015,8 - 0,0
18.01.2019 17:00:00 9,2 2,3 18 10 51 28 NNW 1015,5 - 0,0
18.01.2019 16:00:00 9,8 2,2 17 9 46 25 NW 1015,5 20 0,0
18.01.2019 15:00:00 9,9 1,3 22 12 53 29 NW 1016,0 - 0,0
18.01.2019 14:00:00 11,1 1,1 22 12 56 30 NW 1016,4 - 0,0
18.01.2019 13:00:00 10,3 2,4 22 12 42 23 NW 1017,1 - 0,0
18.01.2019 12:00:00 9,0 2,8 21 11 47 26 NW 1018,0 - 0,0

tt = Température de l'air
td = dewpoint
ff = Vitesse du vent
fx = gusts
dd = Direction du vent
ppp = reduced air pressure
vv = visibility
rr = Quantités de précipitations

stations d'obs. à proximité